Theta_e
347 346 344 344 344 345 347 348 349 350 350 350 352 356 350 353 354 354 351 357 355 354 355 353 351 347 346 344 343 344 344 344 344 342 343 343 344 345 347 346 346 345 345
347 345 343 342 341 343 347 347 348 349 348 349 352 355 349 352 353 351 349 354 354 354 353 355 350 348 347 345 346 343 343 344 343 344 344 344 344 344 344 345 345 346 346
348 347 342 341 341 344 345 348 350 350 349 351 353 352 351 348 348 352 351 354 353 354 353 353 350 347 348 347 346 345 344 344 343 343 343 342 342 342 342 342 344 345 345
347 346 342 341 342 344 345 348 349 348 349 352 352 351 348 339 344 351 354 354 353 350 350 350 349 348 348 349 347 345 343 342 342 340 338 338 340 339 338 338 340 341 342
344 345 342 342 346 344 346 348 349 350 349 353 351 349 346 344 341 345 350 353 354 351 348 348 350 351 349 347 344 341 340 339 336 335 335 335 337 336 337 337 337 338 339
344 345 343 346 348 346 347 348 350 351 351 352 347 341 341 342 343 343 347 346 347 349 347 345 345 344 348 343 339 336 333 331 330 330 332 332 333 335 336 337 337 337 338
347 349 347 348 349 348 350 351 350 350 350 351 339 334 334 336 338 337 338 340 340 344 345 346 341 339 341 338 335 331 327 327 328 328 330 330 330 332 335 336 336 337 338
349 349 351 350 353 347 350 351 350 346 348 349 341 337 330 330 329 330 332 334 339 342 342 343 340 342 339 336 334 325 323 325 327 328 329 331 329 332 334 334 335 335 337
343 349 350 350 351 349 345 348 351 350 343 348 346 339 330 327 328 327 325 329 330 334 337 339 340 341 338 335 328 325 323 323 325 327 329 329 331 332 332 332 333 335 335
334 333 338 341 346 347 346 349 350 350 349 343 342 335 326 326 322 321 321 321 322 322 326 330 333 340 337 332 324 323 324 323 323 329 331 331 330 330 331 331 331 332 334
320 323 327 332 338 342 346 348 348 349 348 347 344 331 325 324 319 317 317 316 317 318 324 328 330 335 333 329 325 324 324 324 323 322 327 328 328 329 328 329 329 330 331
310 313 315 319 327 335 337 342 347 348 348 347 346 336 325 320 321 319 314 316 315 315 321 328 333 331 328 324 322 319 324 321 321 324 325 323 321 321 322 323 325 326 329
304 308 310 312 315 323 331 338 344 348 348 346 340 330 327 326 322 319 318 315 311 312 316 324 325 324 322 323 324 324 323 321 321 319 318 317 317 317 318 318 321 322 325
304 306 308 309 310 313 318 324 327 342 347 344 341 331 324 325 321 321 318 315 306 307 312 318 319 320 321 323 322 321 321 316 315 314 313 312 313 314 314 315 316 319 320
305 306 306 306 308 310 312 317 319 325 339 339 338 331 326 323 320 318 315 317 314 307 306 312 313 319 319 321 318 321 319 310 310 309 310 311 311 311 312 311 313 314 316
303 304 305 304 304 307 310 312 316 318 329 336 333 327 321 316 315 312 313 311 309 313 310 312 313 316 319 318 314 317 315 308 307 307 309 309 309 309 310 310 311 312 314
299 300 303 304 303 302 306 310 313 316 321 329 322 321 318 315 314 312 310 310 307 309 311 307 313 315 317 317 315 315 315 316 313 305 307 308 308 308 309 309 310 311 313
300 300 302 304 303 302 302 307 310 313 322 322 318 319 319 322 321 320 312 308 307 309 313 310 312 311 315 315 314 313 312 311 311 306 306 306 307 309 309 310 309 310 313
298 299 299 300 301 302 302 303 310 311 316 323 320 321 326 323 320 316 314 312 312 310 311 310 308 309 310 311 311 311 312 312 310 304 308 309 307 309 311 310 310 312 310
296 297 299 299 300 301 303 302 308 311 311 324 323 323 328 322 321 317 317 315 312 308 308 309 306 306 308 309 309 308 307 309 308 308 306 305 306 308 311 312 314 313 310
296 296 296 298 301 303 303 303 306 311 310 323 323 321 327 323 320 319 315 312 307 307 305 304 304 305 305 305 306 306 305 307 309 309 306 308 310 313 315 315 314 312 309
294 293 292 293 295 302 305 304 305 309 312 321 319 318 318 319 316 312 311 309 311 308 306 304 304 305 306 306 306 305 304 304 304 308 305 305 310 309 311 315 309 307 305
293 291 291 291 290 295 297 301 304 307 309 318 318 315 314 314 314 308 307 307 307 307 309 310 307 307 306 307 308 305 304 304 304 308 305 303 308 307 309 309 308 307 303
292 291 291 291 290 291 294 298 303 307 309 318 316 313 312 310 308 306 303 303 305 307 307 309 311 309 309 309 309 307 306 306 306 306 306 301 309 305 307 309 306 305 303
293 292 291 290 289 289 292 296 304 311 313 314 313 311 310 308 304 303 303 303 304 303 303 303 303 300 299 300 304 304 303 302 302 303 306 303 306 304 305 306 311 305 303
293 295 292 291 291 287 291 294 299 303 299 299 301 304 305 304 301 302 304 302 300 299 301 299 298 299 300 299 298 304 303 300 301 301 306 303 304 304 301 308 307 307 308
Wind_Speed
6 7 6 6 5 5 5 6 7 7 8 8 6 7 6 7 6 4 2 6 8 8 6 5 6 5 4 2 2 1 1 1 2 3 3 3 4 4 12 16 15 17 18
7 7 7 6 6 6 6 6 7 7 6 6 7 5 4 5 4 3 3 3 5 7 7 6 7 5 5 3 3 2 2 3 3 4 4 5 5 5 5 7 10 14 18
9 9 7 7 7 6 8 7 7 5 6 5 5 4 3 4 4 3 4 6 6 6 10 8 6 5 6 5 4 3 4 5 5 5 6 6 6 6 6 7 9 9 9
11 10 9 8 7 6 6 7 6 6 6 6 5 5 3 4 5 6 5 5 5 5 7 8 5 4 4 7 5 4 5 5 5 8 8 8 7 6 6 6 8 10 11
12 10 9 8 9 7 7 7 7 6 6 6 6 4 4 4 5 4 5 5 6 5 4 8 7 7 7 5 5 5 6 5 5 5 7 8 8 8 7 6 6 7 9
11 10 10 10 9 8 8 9 10 7 7 6 5 4 4 4 4 4 4 5 6 6 6 7 7 7 8 8 6 5 3 2 3 3 5 8 10 9 9 8 8 8 8
11 10 9 10 10 10 11 10 10 10 8 5 3 4 4 3 2 2 3 4 5 7 7 6 5 5 6 9 6 4 3 6 7 9 6 6 10 10 10 10 10 11 11
12 11 12 11 11 10 11 11 12 10 9 8 7 3 4 4 4 3 3 3 4 4 6 6 5 6 6 5 6 3 3 4 7 9 9 7 11 10 11 11 11 12 12
14 13 10 11 11 8 10 9 11 14 11 9 11 6 3 5 2 3 3 1 2 3 4 5 7 7 7 5 6 4 3 3 5 10 10 8 7 9 10 12 13 13 13
12 11 11 12 11 8 7 10 10 12 11 12 4 3 6 2 2 2 1 3 3 4 5 6 6 7 7 5 3 4 2 2 4 5 4 4 5 8 11 12 13 14 14
13 14 13 13 12 10 10 11 12 12 10 11 10 4 4 2 3 3 4 6 5 5 4 5 7 7 8 6 4 4 3 1 2 2 2 3 6 8 11 13 14 15 15
10 12 13 13 13 12 13 13 13 15 13 10 8 9 7 7 6 4 1 3 8 8 5 5 7 7 6 6 4 0 2 5 3 3 4 4 6 7 10 13 15 15 15
12 12 16 13 12 12 16 14 14 15 14 12 12 11 9 10 6 5 5 7 4 4 5 6 6 6 5 5 3 3 8 9 8 8 6 5 6 7 9 11 14 16 16
14 18 17 17 18 18 16 16 14 14 15 11 14 13 10 11 10 8 7 7 2 2 5 7 8 7 5 4 5 7 8 9 8 6 5 6 8 8 9 10 13 14 17
15 19 19 19 20 19 18 18 15 15 14 12 13 14 11 9 7 6 4 3 5 8 9 9 7 9 6 6 5 5 6 6 5 3 3 5 7 10 9 11 12 12 14
20 21 21 19 18 19 20 19 16 14 19 11 9 12 10 8 9 5 4 2 1 6 4 3 7 10 8 6 6 5 5 4 4 4 6 7 9 11 10 11 11 12 13
21 21 20 20 19 19 19 20 20 19 19 12 11 14 16 14 10 9 8 8 7 4 4 1 7 8 8 8 6 4 2 1 0 3 5 8 9 11 12 12 11 11 12
20 20 20 21 20 21 19 21 22 19 19 14 15 15 17 13 17 15 10 11 11 11 4 9 8 7 8 7 5 4 1 2 3 5 6 6 7 10 10 9 9 9 9
20 21 20 21 21 20 19 20 22 20 21 17 18 18 21 21 18 13 12 11 7 3 5 6 7 7 6 6 6 4 3 1 2 2 3 2 5 8 9 7 6 5 6
20 20 21 21 22 22 20 20 22 21 18 18 18 19 22 22 22 19 15 15 9 8 6 8 8 8 7 7 4 4 4 0 3 1 3 2 6 6 4 7 5 6 6
17 18 21 21 24 18 15 17 20 23 19 20 18 18 20 23 25 22 14 14 14 12 9 8 8 6 7 7 6 4 2 1 1 2 5 3 3 3 1 1 3 3 6
18 17 18 20 22 16 20 25 23 20 18 20 17 17 17 23 22 23 20 20 17 15 11 9 7 9 9 7 6 5 4 3 1 4 5 5 3 4 3 2 2 5 7
18 18 19 19 21 20 31 28 28 20 18 21 17 18 15 14 21 17 21 20 15 11 12 10 12 9 10 9 7 7 5 4 4 1 4 5 4 5 4 4 2 2 4
19 17 19 20 19 17 38 32 24 20 17 22 19 19 19 20 20 20 20 15 13 11 11 9 10 10 8 9 7 5 4 3 4 5 4 6 3 5 6 7 6 2 8
16 16 17 21 22 21 39 37 10 12 16 9 12 16 16 19 25 28 21 19 14 10 12 13 14 12 10 8 4 5 5 5 5 4 5 6 4 6 7 6 1 5 8
18 16 19 20 27 24 35 40 25 8 11 10 11 10 12 13 25 21 20 18 15 12 14 13 10 10 9 7 6 5 4 6 5 5 3 5 4 4 4 2 4 7 8
Wind_Direction
254 266 268 273 278 292 292 303 308 318 319 313 313 320 313 300 282 285 337 209 191 163 165 167 146 135 133 143 150 174 102 61 51 39 34 15 355 309 259 254 245 234 229
250 256 265 272 286 291 298 300 306 307 305 312 310 321 307 310 326 303 251 196 213 178 156 153 148 169 181 191 148 110 61 45 31 19 27 28 26 14 346 315 298 255 234
249 259 260 260 258 257 275 279 278 273 285 283 281 276 290 309 284 251 231 249 184 196 150 168 158 187 189 192 133 111 73 39 18 22 18 12 7 4 356 343 343 322 298
253 257 258 258 260 266 273 280 292 292 285 282 277 264 272 272 301 280 252 228 214 197 169 161 160 170 178 134 128 105 69 52 28 21 7 0 354 357 354 342 337 332 326
248 247 252 253 251 258 253 257 261 259 271 270 264 267 274 289 281 271 239 216 200 213 196 139 127 119 119 124 120 98 83 66 49 16 359 354 350 334 328 329 324 313 304
240 241 253 255 249 247 250 249 251 239 237 230 251 252 281 282 265 246 216 199 189 204 197 176 163 134 136 138 124 109 90 39 9 353 345 346 338 336 321 314 318 319 312
241 240 249 250 245 247 244 233 239 240 232 213 193 227 236 222 237 251 218 198 177 195 183 177 185 166 143 121 104 96 45 356 347 343 352 329 326 326 331 329 318 320 318
275 258 246 246 241 245 235 230 231 237 246 200 220 245 254 200 197 166 216 175 173 196 188 197 193 184 171 172 132 94 41 4 341 338 336 332 323 325 332 333 331 320 315
331 320 302 299 284 265 275 263 248 239 244 225 220 236 217 238 167 142 138 213 142 208 226 224 211 196 184 187 168 146 71 14 347 336 332 331 334 337 339 339 338 331 324
328 341 341 323 302 288 268 275 262 254 243 251 196 168 75 112 159 142 116 192 223 219 225 238 223 208 193 186 159 103 77 29 3 0 352 354 351 347 341 338 340 338 332
329 324 324 310 301 293 282 270 262 255 247 241 225 164 176 162 205 157 207 176 196 208 225 233 231 204 197 188 181 120 46 57 26 1 333 356 1 357 349 346 343 344 338
317 317 320 315 311 296 280 273 260 251 246 234 233 194 176 171 198 197 214 261 188 158 200 225 215 196 192 188 190 33 84 103 73 98 68 29 22 8 354 344 340 340 337
318 319 321 314 306 301 295 283 278 258 243 229 198 192 192 197 164 196 195 221 214 148 161 201 204 190 184 198 186 248 119 100 88 78 58 28 357 350 344 338 329 328 331
312 314 309 307 302 296 289 285 285 275 255 235 215 197 195 199 188 175 179 184 156 287 147 157 187 192 179 181 101 135 121 103 92 70 32 357 335 328 324 322 320 321 321
310 308 307 301 300 295 290 285 276 279 265 229 224 200 197 199 192 187 167 223 226 186 182 182 165 190 175 175 139 141 138 108 96 55 341 329 313 309 315 316 310 310 311
308 305 302 297 293 290 290 285 278 275 272 222 216 193 183 172 168 151 134 140 137 270 219 163 180 169 175 163 140 155 127 193 88 19 328 333 324 316 316 310 305 306 304
309 304 298 292 289 285 279 278 275 272 269 221 191 191 189 174 170 173 168 164 169 219 184 111 139 157 169 172 154 154 167 285 352 50 1 335 331 324 318 309 307 311 301
306 300 295 290 287 284 274 268 271 267 263 209 193 195 194 181 183 182 175 178 179 168 207 147 164 161 188 155 143 139 8 348 317 87 340 349 343 329 321 323 315 302 295
305 301 296 290 285 277 270 264 263 263 271 211 200 196 200 193 188 180 175 180 193 185 154 158 149 166 151 151 141 168 201 307 294 211 278 325 351 345 348 344 320 325 338
307 303 302 291 282 275 265 261 260 261 264 220 210 200 197 195 190 178 184 184 179 170 179 160 153 158 153 141 158 189 193 288 329 345 316 288 302 310 323 348 356 350 335
325 322 316 314 313 265 259 251 253 255 254 232 211 202 197 195 197 181 171 172 168 165 171 162 150 158 151 161 180 155 177 314 301 300 333 311 287 294 41 359 320 354 331
335 329 334 330 323 321 266 254 249 255 253 237 202 197 195 191 184 171 160 165 174 159 163 157 166 164 150 164 155 168 176 210 219 145 318 306 271 272 291 269 2 357 3
341 342 340 340 335 328 338 295 249 245 245 249 199 188 183 183 173 157 145 153 151 151 150 153 158 165 158 165 158 174 183 213 241 269 282 286 279 278 288 276 211 303 331
348 351 347 344 341 337 338 325 253 238 238 240 188 183 176 167 165 154 144 141 141 141 141 146 147 146 145 155 166 180 177 222 242 247 226 266 247 282 308 288 181 226 333
350 356 349 350 350 349 350 343 306 235 237 187 172 174 167 162 157 149 140 136 128 119 93 92 97 106 106 102 129 178 212 245 265 250 204 264 269 296 292 296 275 218 288
358 352 2 358 353 354 354 0 20 26 82 79 77 88 118 125 134 147 134 134 130 133 135 122 113 119 137 138 167 239 264 257 257 250 161 243 274 327 308 173 278 314 302